Regional Weather Roundup
Issued by NWS

Home | Current Version | Previous Version | Graphics & Text | Print | Product List | Glossary On
Versions: 1 2 3 4 5 6 7 8 9 10 11 12 13 14 15 16 17 18 19 20 21 22 23 24 25 26 27 28 29 30 31 32 33 34 35 36 37 38 39 40 41 42 43 44 45 46 47 48 49 50
000
ASUS43 KFSD 190010
RWRSD

WEATHER ROUNDUP FOR SOUTH DAKOTA
NATIONAL WEATHER SERVICE SIOUX FALLS SD
600 PM CST SAT FEB 18 2017

NOTE: "FAIR" INDICATES FEW OR NO CLOUDS BELOW 12,000 FEET WITH NO
SIGNIFICANT WEATHER AND/OR OBSTRUCTIONS TO VISIBILITY.


SDZ001>005-009-010-012>017-190100-
NORTHWEST AND NORTH CENTRAL SOUTH DAKOTA

CITY           SKY/WX    TMP DP  RH WIND       PRES   REMARKS
BUFFALO          N/A     52  33  48 NW8       29.53S
FAITH            N/A     53  35  50 SE13      29.58R
MOBRIDGE       CLEAR     43  32  65 SE10      29.62R
$$

SDZ012>016-024>037-041>051-057-063-072>074-190100-
SOUTHWEST AND SOUTH CENTRAL SOUTH DAKOTA

CITY           SKY/WX    TMP DP  RH WIND       PRES   REMARKS
RAPID CTY ARPT CLEAR     64  30  27 W5        29.58R
PIERRE         CLEAR     53  36  52 E12       29.64S
CUSTER         CLEAR     54  24  31 SW12G18   29.65S
ELLSWORTH AFB  CLEAR     64  31  28 SW6       29.58R
PHILIP         CLEAR     58  32  37 SE7       29.60S
PINE RIDGE     CLEAR     55  31  39 S13       29.64R
SPEARFISH      FAIR      57  30  35 S6G12     29.60R
WINNER         FAIR      59  30  33 S14       29.69S
$$

SDZ004>011-016>023-039-040-190100-
NORTHEAST SOUTH DAKOTA

CITY           SKY/WX    TMP DP  RH WIND       PRES   REMARKS
ABERDEEN       CLOUDY    45  39  79 E8        29.74S
WATERTOWN      PTCLDY    46  40  79 SE3       29.76S
BROOKINGS      PTCLDY    52  39  61 S6        29.78R
SISSETON         N/A     45  41  86 S5        29.77S
$$

SDZ017-020-022-023-036>040-048>070-190100-
SOUTHEAST SOUTH DAKOTA

CITY           SKY/WX    TMP DP  RH WIND       PRES   REMARKS
SIOUX FALLS    PTCLDY    50  41  71 S6        29.78S
HURON          CLOUDY    52  40  63 SE8       29.74R
CHAMBERLAIN    CLEAR     53  39  59 SE8       29.70F
MITCHELL       CLEAR     52  38  58 SE8       29.76R
YANKTON        CLEAR     57  34  41 SE6       29.77R
$$

ABBREVIATIONS USED IN REMARKS
   TC - TEMPERATURE IN CELSIUS
  WCI - WIND CHILL INDEX
   HX - HEAT INDEX
  VSB - VISIBILITY





USA.gov is the U.S. government's official web portal to all federal, state and local government web resources and services.